Flag for United Arab Emirates Weather past 2 weeks in Abu Dhabi, Abu Dhabi, United Arab Emirates

Now
90 °F

Clear.


Feels Like: 91 °F
Forecast: 79 / 92 °F
Wind: No wind

Location: Abu Dhabi Bateen Airport


UV Index: 10 (Very high)

Visibility: 10 mi


Pressure: 29.80 "Hg

Humidity: 43%

Dew point: 64 °F

Location of Abu DhabiLocation

Historic Weather in Abu Dhabi

°F

Abu Dhabi temperature yesterday

Maximum temperature yesterday: 99 °F (at 2:00 PM)
Minimum temperature yesterday: 81 °F (at 3:00 AM)
Average temperature yesterday: 86 °F

Past Weeks' High & Low Weather Summary

 TemperatureHumidityPressure
High104 °F (Apr 15, 1:00 PM)89% (Apr 19, 4:00 AM)32.69 "Hg (Apr 19, 4:00 AM)
Low72 °F (Apr 10, 5:00 AM)9% (Apr 10, 1:00 PM)29.71 "Hg (Apr 17, 4:00 PM)
Average87 °F47%29.83 "Hg
* Reported Apr 9 10:00 PM — Apr 24 10:00 PM, Abu Dhabi, Weather by CustomWeather, © 2014

Note: Actual official high and low records may vary slightly from our data, if they occured in-between our weather recording intervals... More about our weather records

Advertising

Historic Weather Conditions — Data for Previous 24 hours

 ConditionsComfort  
Time TempWeatherWind HumidityBarometerVisibility
10:00 PM
Apr 24
90 °FClear.No wind43%29.80 "Hg10 mi
9:00 PM90 °FClear.2 mph43%29.77 "Hg10 mi
8:00 PM91 °FClear.6 mph34%29.77 "Hg10 mi
7:00 PM99 °FClear.13 mph15%29.77 "Hg10 mi
6:00 PM102 °FSunny.9 mph12%29.74 "Hg10 mi
5:00 PM104 °FSunny.12 mph11%29.74 "Hg10 mi
4:00 PM104 °FSunny.15 mph10%29.77 "Hg10 mi
3:00 PM104 °FPassing clouds.10 mph11%29.77 "HgN/A
2:00 PM86 °FPassing clouds.12 mph27%29.77 "HgN/A
1:00 PM102 °FPassing clouds.7 mph20%29.80 "HgN/A
12:00 PM99 °FPassing clouds.9 mph24%29.83 "HgN/A
11:00 AM97 °FClear.6 mph25%29.86 "Hg6 mi
10:00 AM93 °FClear.6 mph30%29.86 "Hg6 mi
9:00 AM88 °FSunny.5 mph43%29.86 "Hg10 mi
8:00 AM82 °FSunny.6 mph51%29.86 "Hg10 mi
7:00 AM79 °FSunny.6 mph61%29.83 "Hg10 mi
6:00 AM79 °FSunny.3 mph70%29.80 "Hg10 mi
5:00 AM79 °FClear.No wind79%29.77 "Hg10 mi
4:00 AM81 °FClear.No wind74%29.77 "Hg10 mi
3:00 AM81 °FClear.1 mph84%29.80 "Hg10 mi
2:00 AM81 °FClear.1 mph84%29.80 "Hg10 mi
1:00 AM82 °FClear.2 mph79%29.83 "Hg10 mi
12:00 AM82 °FClear.1 mph79%29.83 "Hg10 mi
11:00 PM
Apr 23
82 °FClear.2 mph74%29.86 "Hg10 mi
Weather by CustomWeather, © 2014

See weather overview